Showing default

LEMUR 2 ARIANNA, 62699

Orbit data source: Space-Track

LEMUR 2 ARIANNA, 62699 is a payload satellite owned by Spire (US) in SSO that was launched on Tue, 14 Jan 2025 UTC via an FALCON 9 launch vehicle from the Air Force Western Test Range (AFWTR). Payload-class satellites include a variety of spacecraft equipped with specific instruments for various scientific and technological missions. These include communications satellites like Starlink; space stations such as the ISS; scientific satellites like the Hubble; Earth observation satellites from companies like Planet Labs, Umbra, and HawkEye 360; GPS; miniature CubeSats for education and research; and military/defense satellites.

Loading next visibility...
Identifier
62699, 2025-009CU
Orbit
SSO
Country
Flag of USUS
Related business
Manufacturer
Spire/Glasgow
Mission
Operational Commercial Com/MetRO
Bus & Motor
CUBESAT 3U, Unknown motor
Mass
7.6 kg wet, 7.6 kg dry
Launch date (UTC)
2025-01-14 (1 year ago)
Launch vehicle
FALCON 9
Launch site
Air Force Western Test Range (AFWTR)
Object type
Payload
Rocket body
Debris
Shape & HBR
Box + 2 Pan, 0.2 m
Radar Cross Section
0.063 m², Small (<0.1 m²)

Expand to show TLE details & history
Last TLE update: 6 hours ago

TLE from 6 hours ago
0 LEMUR 2 ARIANNA
1 62699U 25009CU  26038.20046869  .00010375  00000-0  83100-3 0  9993
2 62699  97.7112 120.7740 0002165 199.2454 160.8688 15.00335870 58057
Epoch: 2026-02-07T04:48Z
TLE epoch observation values (Epoch: 2026-02-07T04:48:40.494Z)
Latitude
-0.00006°
Longitude
-88.72212°
Altitude
570.335 km
Speed
7.575 km/s
True Right ascension
08h 03m 05s
True Declination
0° 00' 00"
Sunlit
Object was in full shadow at epoch
Visualization orbit readout
Latitude
Unknown
Longitude
Unknown
Altitude
Unknown
Speed
Unknown
Apparent Right ascension
Unknown
Apparent Declination
Unknown
Sunlit
N/A
Visualization observer readout
Local Sidereal Time
12:55:22
Azimuth
Unknown
Elevation
Unknown
Doppler factor
Unknown
Orbital elements
Apogee altitude
564.368 km
Perigee altitude
561.362 km
Semi-major axis
6,941.002 km
Eccentricity
0.00022
Inclination
97.7112°
RAAN
120.774°
Arg. of periapsis
199.2454°
True anomaly
160.87693°
Mean anomaly
160.8688°
Eccentric anomaly
160.87286°
Mean motion
3.75327 °/min
Orbital period
95.92 mins
BSTAR
0.000831
Loading maneuver chart data...
Computing Atmospheric mass density...
Loading historical data...
Loading historical data...
Loading historical data...
Loading historical data...
Loading historical data...
Loading historical data...
Loading historical data...

Documentation

Showing up to 5 results
|